Maple Lake, MN

6:13 PM CDT on September 25, 2017 (GMT -0500)
Maple Lake Municipal

Weather History for KMGG - February, 2013

Change the Weather History Date:

Tuesday, February 19, 2013

  Actual Average (KSTC) Record (KSTC)
Temperature  
Mean Temperature 0 °F -  
Max Temperature 5 °F 28 °F 58 °F (2017)
Min Temperature -4 °F 7 °F -26 °F (1910)
Degree Days  
Heating Degree Days 64    
Moisture  
Dew Point -7 °F    
Average Humidity 70    
Maximum Humidity 80    
Minimum Humidity 57    
Precipitation  
Precipitation 0.00 in - - ()
Sea Level Pressure  
Sea Level Pressure 30.12 in    
Wind  
Wind Speed 15 mph (NW)    
Max Wind Speed 18 mph    
Max Gust Speed 29 mph    
Visibility 10 miles    
Events Snow    
Averages and records for this station are not official NWS values.
T = Trace of Precipitation, MM = Missing Value Source: NWS Daily Summary

Daily Weather History Graph

Daily Weather History Graph

Search for Another Location

Airport or City:

Trip Planner

Search our weather history database for the weather conditions in past years. The results will help you decide how hot, cold, wet, or windy it might be!

Date:

Astronomy

Feb. 19, 2013 Rise Set
Actual Time 7:10 AM CST 5:49 PM CST
Civil Twilight 6:40 AM CST 6:19 PM CST
Nautical Twilight 6:06 AM CST 6:54 PM CST
Astronomical Twilight 5:32 AM CST 7:28 PM CST
Moon 12:13 PM CST (2/19) 2:51 AM CST (2/19)
Length of Visible Light 11h 39m
Length of Day
10h 39m
Waxing Gibbous, 67% of the Moon is Illuminated
Feb 19
Waxing Gibbous
Feb 25
Full
Mar 4
Last Quarter
Mar 11
New
Mar 19
First Quarter

Hourly Weather History & Observations

Time (CST) Temp. Windchill Dew Point Humidity Pressure Visibility Wind Dir Wind Speed Gust Speed Precip Events Conditions
12:15 AM 5.0 °F -14.7 °F -0.4 °F 78% 29.84 in 7.0 mi NW 18.4 mph 25.3 mph N/A   Overcast
12:35 AM 5.0 °F -14.2 °F 0.1 °F 80% 29.85 in 3.0 mi NW 17.3 mph 21.9 mph N/A Snow Light Snow
12:56 AM 4.5 °F -14.9 °F -0.8 °F 79% 29.87 in 7.0 mi NW 17.3 mph 23.0 mph N/A   Mostly Cloudy
1:15 AM 3.7 °F -14.6 °F -1.8 °F 78% 29.87 in 10.0 mi NW 15.0 mph 21.9 mph N/A   Clear
1:35 AM 3.2 °F -13.9 °F -2.2 °F 78% 29.88 in 10.0 mi NW 12.7 mph 21.9 mph N/A   Scattered Clouds
1:56 AM 3.2 °F -15.3 °F -2.4 °F 78% 29.89 in 10.0 mi NW 15.0 mph - N/A   Mostly Cloudy
2:15 AM 3.2 °F -15.9 °F -2.4 °F 78% 29.90 in 10.0 mi NW 16.1 mph 21.9 mph N/A   Mostly Cloudy
2:35 AM 3.2 °F -14.6 °F -2.4 °F 78% 29.90 in 10.0 mi NW 13.8 mph 20.7 mph N/A   Overcast
2:56 AM 3.2 °F -17.1 °F -2.4 °F 78% 29.91 in 10.0 mi NW 18.4 mph 25.3 mph N/A   Overcast
3:15 AM 3.4 °F -16.8 °F -2.4 °F 77% 29.92 in 10.0 mi NW 18.4 mph 24.2 mph N/A   Overcast
3:35 AM 3.6 °F -14.1 °F -2.6 °F 76% 29.93 in 10.0 mi NW 13.8 mph 26.5 mph N/A   Overcast
3:55 AM 3.2 °F -16.5 °F -2.9 °F 76% 29.93 in 10.0 mi NW 17.3 mph 25.3 mph N/A   Overcast
4:16 AM 3.0 °F -15.5 °F -3.3 °F 75% 29.94 in 10.0 mi NW 15.0 mph 28.8 mph N/A   Overcast
4:35 AM 2.7 °F -16.0 °F -3.6 °F 75% 29.95 in 10.0 mi NW 15.0 mph 20.7 mph N/A   Overcast
4:56 AM 2.3 °F -17.7 °F -4.0 °F 75% 29.95 in 10.0 mi NW 17.3 mph 25.3 mph N/A   Mostly Cloudy
5:15 AM 1.9 °F -17.5 °F -4.2 °F 76% 29.96 in 10.0 mi NW 16.1 mph 24.2 mph N/A   Mostly Cloudy
5:36 AM 1.8 °F -15.7 °F -4.4 °F 76% 29.97 in 10.0 mi NW 12.7 mph 23.0 mph N/A   Mostly Cloudy
5:55 AM 1.4 °F -16.9 °F -4.9 °F 75% 29.98 in 10.0 mi NW 13.8 mph 23.0 mph N/A   Mostly Cloudy
6:16 AM 0.9 °F -16.0 °F -5.1 °F 76% 29.99 in 10.0 mi NW 11.5 mph 20.7 mph N/A   Scattered Clouds
6:35 AM -0.4 °F -19.2 °F -6.0 °F 77% 30.00 in 10.0 mi WNW 13.8 mph 19.6 mph N/A   Mostly Cloudy
6:55 AM -1.3 °F -20.3 °F -6.7 °F 78% 30.01 in 10.0 mi WNW 13.8 mph 21.9 mph N/A   Overcast
7:15 AM -1.7 °F -21.5 °F -6.9 °F 78% 30.02 in 10.0 mi WNW 15.0 mph 20.7 mph N/A   Mostly Cloudy
7:35 AM -2.2 °F -20.7 °F -7.6 °F 78% 30.04 in 10.0 mi WNW 12.7 mph - N/A   Scattered Clouds
7:55 AM -2.2 °F -22.2 °F -7.8 °F 77% 30.05 in 10.0 mi WNW 15.0 mph 20.7 mph N/A   Clear
8:15 AM -1.7 °F -21.5 °F -7.8 °F 75% 30.06 in 10.0 mi WNW 15.0 mph 19.6 mph N/A   Clear
8:36 AM -1.3 °F -22.9 °F -7.8 °F 74% 30.07 in 10.0 mi WNW 18.4 mph 21.9 mph N/A   Clear
8:55 AM -1.7 °F -22.8 °F -8.5 °F 73% 30.08 in 10.0 mi WNW 17.3 mph - N/A   Clear
9:15 AM -1.5 °F -22.6 °F -8.7 °F 71% 30.09 in 10.0 mi WNW 17.3 mph 25.3 mph N/A   Clear
9:36 AM -0.9 °F -21.2 °F -8.5 °F 70% 30.09 in 10.0 mi NW 16.1 mph 21.9 mph N/A   Clear
9:55 AM -0.4 °F -20.5 °F -8.5 °F 69% 30.10 in 10.0 mi NW 16.1 mph 23.0 mph N/A   Clear
10:16 AM 0.5 °F -17.3 °F -8.0 °F 68% 30.10 in 10.0 mi NW 12.7 mph 20.7 mph N/A   Clear
10:36 AM 1.0 °F -18.0 °F -7.8 °F 66% 30.11 in 10.0 mi WNW 15.0 mph 21.9 mph N/A   Clear
10:55 AM 1.0 °F -17.3 °F -8.0 °F 66% 30.12 in 10.0 mi NW 13.8 mph 25.3 mph N/A   Clear
11:15 AM 1.4 °F -18.8 °F -7.6 °F 66% 30.14 in 10.0 mi WNW 17.3 mph 21.9 mph N/A   Clear
11:36 AM 1.9 °F -15.5 °F -7.4 °F 65% 30.14 in 10.0 mi WNW 12.7 mph 20.7 mph N/A   Clear
11:55 AM 2.7 °F -14.5 °F -7.1 °F 64% 30.15 in 10.0 mi NW 12.7 mph 20.7 mph N/A   Clear
12:16 PM 3.0 °F -15.5 °F -6.9 °F 63% 30.15 in 10.0 mi WNW 15.0 mph 24.2 mph N/A   Clear
12:35 PM 2.8 °F -17.0 °F -7.2 °F 63% 30.16 in 10.0 mi WNW 17.3 mph 20.7 mph N/A   Clear
1:15 PM 3.0 °F -16.1 °F -7.2 °F 62% 30.15 in 10.0 mi WNW 16.1 mph 23.0 mph N/A   Clear
1:35 PM 4.1 °F -14.1 °F -6.7 °F 61% 30.15 in 10.0 mi NW 15.0 mph 23.0 mph N/A   Clear
1:55 PM 4.5 °F -13.0 °F -6.7 °F 60% 30.16 in 10.0 mi NW 13.8 mph - N/A   Clear
2:15 PM 4.5 °F -13.7 °F -6.7 °F 60% 30.17 in 10.0 mi NW 15.0 mph 24.2 mph N/A   Clear
2:35 PM 4.6 °F -13.4 °F -7.1 °F 58% 30.17 in 10.0 mi NW 15.0 mph 21.9 mph N/A   Clear
2:56 PM 4.6 °F -12.8 °F -7.4 °F 58% 30.18 in 10.0 mi NW 13.8 mph 21.9 mph N/A   Clear
3:15 PM 4.8 °F -13.2 °F -6.3 °F 60% 30.19 in 10.0 mi WNW 15.0 mph 18.4 mph N/A   Clear
3:35 PM 4.8 °F -12.5 °F -6.9 °F 59% 30.20 in 10.0 mi NW 13.8 mph 21.9 mph N/A   Clear
3:56 PM 5.0 °F -11.6 °F -6.9 °F 58% 30.21 in 10.0 mi NW 12.7 mph - N/A   Clear
4:15 PM 4.5 °F -13.0 °F -7.6 °F 57% 30.22 in 10.0 mi NW 13.8 mph 20.7 mph N/A   Clear
4:35 PM 4.5 °F -13.0 °F -7.6 °F 57% 30.22 in 10.0 mi NW 13.8 mph 19.6 mph N/A   Clear
4:56 PM 4.1 °F -13.4 °F -7.6 °F 58% 30.22 in 10.0 mi NW 13.8 mph 19.6 mph N/A   Clear
5:15 PM 3.7 °F -11.6 °F -7.6 °F 59% 30.23 in 10.0 mi NW 10.4 mph 17.3 mph N/A   Clear
5:35 PM 3.0 °F -14.1 °F -7.8 °F 61% 30.24 in 10.0 mi NW 12.7 mph - N/A   Clear
6:35 PM 0.3 °F -15.8 °F -8.5 °F 66% 30.26 in 10.0 mi WNW 10.4 mph - N/A   Clear
6:56 PM 0.1 °F -16.0 °F -8.5 °F 67% 30.27 in 10.0 mi WNW 10.4 mph - N/A   Clear
7:15 PM -0.4 °F -15.7 °F -8.9 °F 67% 30.28 in 10.0 mi WNW 9.2 mph - N/A   Clear
7:55 PM -0.8 °F -15.1 °F -9.2 °F 67% 30.30 in 10.0 mi WNW 8.1 mph - N/A   Clear
8:15 PM -2.0 °F -13.9 °F -9.8 °F 70% 30.30 in 10.0 mi WNW 5.8 mph - N/A   Clear
8:35 PM -2.2 °F -14.2 °F -9.9 °F 70% 30.31 in 10.0 mi WNW 5.8 mph - N/A   Clear
8:55 PM -2.9 °F -15.0 °F -10.3 °F 71% 30.32 in 10.0 mi WNW 5.8 mph - N/A   Clear
9:15 PM -2.2 °F -16.8 °F -10.1 °F 69% 30.33 in 10.0 mi WNW 8.1 mph - N/A   Clear
9:35 PM -2.9 °F -16.5 °F -10.3 °F 71% 30.32 in 10.0 mi NW 6.9 mph - N/A   Clear
9:55 PM -3.5 °F -18.4 °F -10.5 °F 72% 30.33 in 10.0 mi NW 8.1 mph - N/A   Clear
10:16 PM -3.8 °F -18.8 °F -10.8 °F 72% 30.33 in 10.0 mi NNW 8.1 mph - N/A   Clear
10:35 PM -3.5 °F -15.7 °F -10.5 °F 72% 30.34 in 10.0 mi West 5.8 mph - N/A   Clear
10:55 PM -4.2 °F -18.0 °F -10.8 °F 73% 30.34 in 10.0 mi NW 6.9 mph - N/A   Clear
11:16 PM -4.0 °F -17.8 °F -11.0 °F 72% 30.34 in 10.0 mi NW 6.9 mph - N/A   Clear
11:35 PM -4.9 °F -20.1 °F -11.2 °F 74% 30.35 in 10.0 mi NW 8.1 mph - N/A   Clear
11:55 PM -4.0 °F -16.3 °F -10.7 °F 73% 30.36 in 10.0 mi NW 5.8 mph - N/A   Clear